Weather Roundup
Issued by NWS

Home | Current Version | Previous Version | Text Only | Print | Product List | Glossary On
Versions: 1 2 3 4 5 6 7 8 9 10 11 12 13 14 15 16 17 18 19 20 21 22 23 24 25 26 27 28 29 30 31 32 33 34 35 36 37 38 39 40 41 42 43 44 45 46 47 48 49 50
000
NZUS93 KARX 250410
HRRWXR

CURRENT HOURLY OBSERVATIONS ACROSS
MUCH OF THE UPPER MISSISSIPPI VALLEY
NATIONAL WEATHER SERVICE LA CROSSE WI
1100 PM CDT SUN SEP 24 2017


...SOUTHEAST MINNESOTA...


CITY           SKY/WX    TMP DP  RH WIND       PRES   REMARKS
ROCHESTER      CLEAR     72  63  73 SW10      29.96R
ROCHESTER/MAYO FAIR      76  61  60 SE3       29.95R
WINONA         CLEAR     79  63  57 S5        29.92S
AUSTIN         PTCLDY    73  63  68 CALM      29.95S
ALBERT LEA     CLOUDY    73  66  78 W3        29.96R
DODGE CENTER   CLOUDY    70  63  78 CALM      29.95R
PRESTON        CLEAR     70  62  74 S6        29.96R
OWATONNA       CLOUDY    70  66  88 CALM      29.94S
FARIBAULT      MOCLDY    70  66  88 CALM      29.93F
$$

...ELSEWHERE IN MINNESOTA...


CITY           SKY/WX    TMP DP  RH WIND       PRES   REMARKS
MINNEAPOLIS    MOCLDY    73  66  78 W7        29.92R
INTNL FALLS    MOCLDY    57  55  93 W8        29.87R
DULUTH         PTCLDY    66  65  96 W8        29.88S
RED WING       PTCLDY    75  63  64 CALM      29.90F
REDWOOD FALLS  LGT RAIN  60  57  89 NW10      29.96F
MANKATO        CLOUDY    68  64  88 NW10      29.96R
WORTHINGTON    LGT RAIN  59  58  96 NW8       29.99S
FAIRMONT       CLOUDY    67  64  90 N10       29.96S
$$

...SOUTHWEST WISCONSIN...


CITY           SKY/WX    TMP DP  RH WIND       PRES   REMARKS
LA CROSSE      CLEAR     76  64  66 S3        29.93S
PRAIRIE DU CHI CLEAR     72  61  68 E3        29.96S
BOSCOBEL       CLEAR     69  64  84 CALM      29.96S
LONE ROCK      CLEAR     67  63  87 E5        29.97F
PLATTEVILLE    CLEAR     73  63  71 SE7       29.99S
FORT MC COY    CLEAR     77  62  58 S8        29.96S
CAMP DOUGLAS   PTCLDY    65  62  89 S5        29.96F
MAUSTON-NEW LI CLEAR     69  62  78 SE5       29.97S
VIROQUA        FAIR      73  62  69 S6        29.98S
WIS DELLS      CLEAR     71  58  63 S5        29.99S
$$

...ELSEWHERE IN WISCONSIN...


CITY           SKY/WX    TMP DP  RH WIND       PRES   REMARKS
MILWAUKEE      CLEAR     75  63  66 S6        30.01F
MADISON        CLEAR     75  61  61 S6        29.99S
GREEN BAY      CLEAR     72  62  71 SW7       29.99S
EAU CLAIRE     CLEAR     77  62  59 S12       29.90S
BLACK RVR FLS  FAIR      66  59  77 CALM      29.94S
MEDFORD        CLEAR     65  60  82 S7        29.98S
WAUSAU         CLEAR     71  60  68 CALM      29.97S
WIS RAPIDS     CLEAR     70  60  70 S3        29.99S
MARSHFIELD     CLEAR     68  59  73 S6        29.97S
RICE LAKE      CLOUDY    76  62  63 S6        29.93F
$$

...NORTHEAST IOWA...


CITY           SKY/WX    TMP DP  RH WIND       PRES   REMARKS
WATERLOO       CLEAR     73  62  68 SE6       29.94R
DUBUQUE        CLEAR     70  62  76 S5        29.99S
DECORAH        CLEAR     72  64  78 S6        29.95S
MASON CITY     PTCLDY    70  63  78 W9        29.98R
CHARLES CITY   CLEAR     73  63  68 SE6       29.95S
OELWEIN        CLEAR     70  64  83 SE7       29.97R
$$

...ELSEWHERE IN IOWA...


CITY           SKY/WX    TMP DP  RH WIND       PRES   REMARKS
DES MOINES     PTCLDY    75  63  66 SE8       29.92S
IOWA CITY      CLEAR     71  64  78 CALM      29.97S
FORT DODGE     LGT RAIN  70  66  87 W6        29.94R
MARSHALLTOWN   CLEAR     71  64  78 SE6       29.94S
CEDAR RAPIDS   CLEAR     68  62  81 SE5       29.95S
$$

...NORTHERN ILLINOIS...


CITY           SKY/WX    TMP DP  RH WIND       PRES   REMARKS
CHICAGO-OHARE  CLEAR     76  61  59 SE5       30.01S
CHICAGO-MIDWAY CLEAR     78  65  63 CALM      30.01F
MOLINE         CLEAR     74  63  68 E5        29.96F
ROCKFORD       CLEAR     71  61  70 SE5       30.00F
PEORIA         CLEAR     74  62  66 E6        29.98F
$$

NOTE: "FAIR" INDICATES FEW OR NO CLOUDS BELOW 12,000 FEET WITH NO
SIGNIFICANT WEATHER AND/OR OBSTRUCTIONS TO VISIBILITY. WIND
SPEEDS ARE IN MILES-PER-HOUR.




USA.gov is the U.S. government's official web portal to all federal, state and local government web resources and services.